Ambler, AK

2:52 AM AKDT on July 30, 2016 (GMT -0800)
Ambler

Weather History for PAFM - September, 2013

Change the Weather History Date:

Thursday, September 19, 2013

  Actual Average Record
Temperature  
Mean Temperature 32 °F -  
Max Temperature 37 °F 43 °F 62 °F (2010)
Min Temperature 26 °F 31 °F 18 °F (1987)
Degree Days  
Heating Degree Days 34    
Moisture  
Dew Point 21 °F    
Average Humidity 65    
Maximum Humidity 86    
Minimum Humidity 52    
Precipitation  
Precipitation 0.00 in - - ()
Sea Level Pressure  
Sea Level Pressure 29.68 in    
Wind  
Wind Speed 1 mph (West)    
Max Wind Speed 5 mph    
Max Gust Speed -    
Visibility 10 miles    
Events      
Averages and records for this station are not official NWS values.
T = Trace of Precipitation, MM = Missing Value Source: NWS Daily Summary

Daily Weather History Graph

Daily Weather History Graph

Search for Another Location

Airport or City:

Trip Planner

Search our weather history database for the weather conditions in past years. The results will help you decide how hot, cold, wet, or windy it might be!

Date:

Astronomy

Sep. 19, 2013 Rise Set
Actual Time 8:04 AM AKDT 8:43 PM AKDT
Civil Twilight 7:10 AM AKDT 9:37 PM AKDT
Nautical Twilight 6:01 AM AKDT 10:45 PM AKDT
Astronomical Twilight 4:33 AM AKDT 12:11 AM AKDT
Moon 8:07 PM AKDT (9/19) 8:55 AM AKDT (9/19)
Length of Visible Light 14h 27m
Length of Day
12h 38m
Full, 100% of the Moon is Illuminated
Sep 19
Full
Sep 26
Last Quarter
Oct 4
New
Oct 11
First Quarter
Oct 18
Full

Hourly Weather History & Observations

Time (AKDT) Temp. Windchill Dew Point Humidity Pressure Visibility Wind Dir Wind Speed Gust Speed Precip Events Conditions
12:16 AM 26.6 °F - 17.6 °F 69% 29.71 in 10.0 mi Calm Calm - N/A   Partly Cloudy
12:36 AM 26.6 °F 22.6 °F 17.6 °F 69% 29.71 in 10.0 mi WNW 3.5 mph - N/A   Partly Cloudy
12:56 AM 26.6 °F 22.6 °F 17.6 °F 69% 29.71 in 10.0 mi WNW 3.5 mph - N/A   Scattered Clouds
1:16 AM 26.6 °F 21.2 °F 19.4 °F 74% 29.71 in 10.0 mi West 4.6 mph - N/A   Overcast
1:36 AM 26.6 °F 21.2 °F 19.4 °F 74% 29.71 in 10.0 mi West 4.6 mph - N/A   Overcast
1:56 AM 26.6 °F 21.2 °F 19.4 °F 74% 29.71 in 10.0 mi West 4.6 mph - N/A   Overcast
2:16 AM 26.6 °F 21.2 °F 19.4 °F 74% 29.71 in 10.0 mi WNW 4.6 mph - N/A   Overcast
2:36 AM 26.6 °F 22.6 °F 19.4 °F 74% 29.71 in 10.0 mi West 3.5 mph - N/A   Overcast
2:56 AM 26.6 °F 22.6 °F 19.4 °F 74% 29.70 in 10.0 mi West 3.5 mph - N/A   Overcast
3:16 AM 28.4 °F - 19.4 °F 69% 29.70 in 10.0 mi Calm Calm - N/A   Overcast
3:36 AM 28.4 °F - 19.4 °F 69% 29.70 in 10.0 mi Calm Calm - N/A   Overcast
3:56 AM 28.4 °F - 19.4 °F 69% 29.70 in 10.0 mi Calm Calm - N/A   Overcast
4:16 AM 26.6 °F - 19.4 °F 74% 29.70 in 10.0 mi Calm Calm - N/A   Overcast
4:36 AM 26.6 °F - 19.4 °F 74% 29.70 in 10.0 mi Calm Calm - N/A   Overcast
4:56 AM 26.6 °F - 19.4 °F 74% 29.69 in 10.0 mi Calm Calm - N/A   Overcast
5:16 AM 28.4 °F 24.6 °F 19.4 °F 69% 29.69 in 10.0 mi West 3.5 mph - N/A   Overcast
5:36 AM 28.4 °F 24.6 °F 19.4 °F 69% 29.69 in 10.0 mi WNW 3.5 mph - N/A   Overcast
5:56 AM 28.4 °F - 19.4 °F 69% 29.69 in 10.0 mi Calm Calm - N/A   Overcast
6:16 AM 28.4 °F - 19.4 °F 69% 29.69 in 10.0 mi Calm Calm - N/A   Overcast
6:36 AM 28.4 °F 24.6 °F 19.4 °F 69% 29.69 in 10.0 mi West 3.5 mph - N/A   Overcast
6:56 AM 28.4 °F 24.6 °F 19.4 °F 69% 29.69 in 10.0 mi West 3.5 mph - N/A   Overcast
7:16 AM 28.4 °F 24.6 °F 19.4 °F 69% 29.69 in 10.0 mi WNW 3.5 mph - N/A   Overcast
7:36 AM 28.4 °F - 19.4 °F 69% 29.69 in 10.0 mi Calm Calm - N/A   Overcast
7:56 AM 28.4 °F - 19.4 °F 69% 29.69 in 10.0 mi Calm Calm - N/A   Overcast
8:16 AM 28.4 °F - 19.4 °F 69% 29.69 in 10.0 mi Calm Calm - N/A   Overcast
8:36 AM 28.4 °F - 21.2 °F 74% 29.69 in 10.0 mi Calm Calm - N/A   Overcast
8:56 AM 28.4 °F - 21.2 °F 74% 29.69 in 10.0 mi Calm Calm - N/A   Overcast
9:16 AM 28.4 °F - 21.2 °F 74% 29.69 in 10.0 mi Calm Calm - N/A   Overcast
9:36 AM 28.4 °F - 21.2 °F 74% 29.69 in 10.0 mi Calm Calm - N/A   Overcast
9:56 AM 28.4 °F - 21.2 °F 74% 29.70 in 10.0 mi Calm Calm - N/A   Overcast
10:16 AM 28.4 °F - 23.0 °F 80% 29.70 in 10.0 mi Calm Calm - N/A   Overcast
10:36 AM 28.4 °F - 23.0 °F 80% 29.70 in 10.0 mi Calm Calm - N/A   Overcast
10:56 AM 28.4 °F - 24.8 °F 86% 29.70 in 10.0 mi Calm Calm - N/A   Overcast
11:16 AM 30.2 °F - 23.0 °F 75% 29.70 in 10.0 mi Calm Calm - N/A   Overcast
11:36 AM 30.2 °F - 23.0 °F 75% 29.70 in 10.0 mi Calm Calm - N/A   Overcast
11:56 AM 30.2 °F - 21.2 °F 69% 29.70 in 10.0 mi Calm Calm - N/A   Overcast
12:16 PM 30.2 °F - 23.0 °F 75% 29.71 in 10.0 mi Calm Calm - N/A   Overcast
12:36 PM 32.0 °F - 23.0 °F 69% 29.70 in 10.0 mi Calm Calm - N/A   Overcast
12:56 PM 33.8 °F - 21.2 °F 60% 29.70 in 10.0 mi Calm Calm - N/A   Overcast
1:16 PM 33.8 °F - 21.2 °F 60% 29.70 in 10.0 mi Calm Calm - N/A   Overcast
1:36 PM 33.8 °F - 21.2 °F 60% 29.70 in 10.0 mi Calm Calm - N/A   Overcast
1:56 PM 33.8 °F - 21.2 °F 60% 29.70 in 10.0 mi Calm Calm - N/A   Overcast
2:16 PM 33.8 °F - 21.2 °F 60% 29.70 in 10.0 mi Calm Calm - N/A   Overcast
2:36 PM 35.6 °F - 21.2 °F 56% 29.70 in 10.0 mi Calm Calm - N/A   Overcast
2:56 PM 35.6 °F - 21.2 °F 56% 29.70 in 10.0 mi Calm Calm - N/A   Overcast
3:16 PM 35.6 °F 32.8 °F 21.2 °F 56% 29.70 in 10.0 mi SW 3.5 mph - N/A   Overcast
3:36 PM 35.6 °F 32.8 °F 21.2 °F 56% 29.69 in 10.0 mi West 3.5 mph - N/A   Overcast
3:56 PM 35.6 °F - 21.2 °F 56% 29.69 in 10.0 mi Calm Calm - N/A   Overcast
4:16 PM 35.6 °F - 21.2 °F 56% 29.69 in 10.0 mi Calm Calm - N/A   Overcast
4:36 PM 35.6 °F - 21.2 °F 56% 29.69 in 10.0 mi Calm Calm - N/A   Overcast
4:56 PM 35.6 °F - 21.2 °F 56% 29.68 in 10.0 mi Calm Calm - N/A   Overcast
5:16 PM 35.6 °F 31.7 °F 21.2 °F 56% 29.68 in 10.0 mi SW 4.6 mph - N/A   Overcast
5:36 PM 35.6 °F 31.7 °F 21.2 °F 56% 29.68 in 10.0 mi South 4.6 mph - N/A   Overcast
5:56 PM 37.4 °F - 21.2 °F 52% 29.68 in 10.0 mi Calm Calm - N/A   Overcast
6:16 PM 37.4 °F - 21.2 °F 52% 29.67 in 10.0 mi Calm Calm - N/A   Overcast
6:36 PM 37.4 °F - 21.2 °F 52% 29.67 in 10.0 mi Calm Calm - N/A   Overcast
6:56 PM 37.4 °F - 21.2 °F 52% 29.66 in 10.0 mi Calm Calm - N/A   Overcast
7:16 PM 35.6 °F 31.7 °F 21.2 °F 56% 29.66 in 10.0 mi SSW 4.6 mph - N/A   Overcast
7:36 PM 35.6 °F 32.8 °F 21.2 °F 56% 29.66 in 10.0 mi SW 3.5 mph - N/A   Overcast
7:56 PM 35.6 °F - 21.2 °F 56% 29.66 in 10.0 mi Calm Calm - N/A   Overcast
8:16 PM 35.6 °F - 21.2 °F 56% 29.66 in 10.0 mi Calm Calm - N/A   Overcast
8:36 PM 33.8 °F - 21.2 °F 60% 29.65 in 10.0 mi Calm Calm - N/A   Overcast
8:56 PM 33.8 °F 30.8 °F 21.2 °F 60% 29.65 in 10.0 mi WSW 3.5 mph - N/A   Overcast
9:16 PM 33.8 °F - 21.2 °F 60% 29.65 in 10.0 mi Calm Calm - N/A   Overcast
9:36 PM 33.8 °F - 21.2 °F 60% 29.64 in 10.0 mi Calm Calm - N/A   Overcast
9:56 PM 33.8 °F - 21.2 °F 60% 29.64 in 10.0 mi Calm Calm - N/A   Overcast
10:16 PM 32.0 °F - 21.2 °F 64% 29.64 in 10.0 mi Calm Calm - N/A   Overcast
10:36 PM 32.0 °F - 19.4 °F 60% 29.63 in 10.0 mi Calm Calm - N/A   Overcast
10:56 PM 32.0 °F - 19.4 °F 60% 29.63 in 10.0 mi Calm Calm - N/A   Overcast
11:16 PM 32.0 °F - 21.2 °F 64% 29.62 in 10.0 mi Calm Calm - N/A   Overcast
11:36 PM 32.0 °F - 19.4 °F 60% 29.62 in 10.0 mi Calm Calm - N/A   Overcast
11:56 PM 32.0 °F - 21.2 °F 64% 29.62 in 10.0 mi Calm Calm - N/A   Overcast